| time (UTC) | temp C | wind direction | speed KPH | gust KPH | rain 1hr cm | rain 24hr cm | rain mn cm | humidity % | barometer mb |
| 20260507085503 | 21 | 5 | 0.0 | 4.8 | 0.00 | 0.00 | 0.00 | 88 | 1013.1 |
| 20260507085100 | 21 | 360 | 0.0 | 1.6 | 0.00 | 0.00 | 0.00 | 88 | 1013.0 |
| 20260507084700 | 21 | 327 | 0.0 | 3.2 | 0.00 | 0.00 | 0.00 | 88 | 1013.0 |
| 20260507084103 | 21 | 261 | 0.0 | 3.2 | 0.00 | 0.00 | 0.00 | 88 | 1013.1 |
| 20260507083554 | 21 | 311 | 0.0 | 6.4 | 0.00 | 0.00 | 0.00 | 88 | 1013.0 |
| 20260507083054 | 21 | 253 | 0.0 | 6.4 | 0.00 | 0.00 | 0.00 | 89 | 1013.0 |
| 20260507082558 | 20 | 138 | 0.0 | 1.6 | 0.00 | 0.00 | 0.00 | 89 | 1012.9 |
| 20260507082052 | 20 | 127 | 0.0 | 1.6 | 0.00 | 0.00 | 0.00 | 89 | 1012.9 |
| 20260507081550 | 20 | 174 | 0.0 | 0.0 | 0.00 | 0.00 | 0.00 | 89 | 1013.0 |
| 20260507081135 | 20 | 174 | 0.0 | 0.0 | 0.00 | 0.00 | 0.00 | 88 | 1013.0 |
| 20260507080534 | 20 | 174 | 0.0 | 0.0 | 0.00 | 0.00 | 0.00 | 88 | 1013.2 |
| 20260507075533 | 20 | 174 | 0.0 | 1.6 | 0.00 | 0.00 | 0.00 | 88 | 1013.3 |
| 20260507075036 | 20 | 108 | 0.0 | 1.6 | 0.00 | 0.00 | 0.00 | 88 | 1013.3 |
| 20260507074533 | 20 | 152 | 0.0 | 0.0 | 0.00 | 0.00 | 0.00 | 88 | 1013.4 |
| 20260507074030 | 20 | 152 | 0.0 | 0.0 | 0.00 | 0.00 | 0.00 | 88 | 1013.4 |
| 20260507073627 | 20 | 211 | 0.0 | 1.6 | 0.00 | 0.00 | 0.00 | 88 | 1013.4 |
| 20260507073026 | 20 | 216 | 0.0 | 3.2 | 0.00 | 0.00 | 0.00 | 88 | 1013.5 |
| 20260507072525 | 20 | 191 | 0.0 | 3.2 | 0.00 | 0.00 | 0.00 | 88 | 1013.6 |
| 20260507072022 | 20 | 88 | 0.0 | 0.0 | 0.00 | 0.00 | 0.00 | 87 | 1013.6 |
| 20260507071525 | 21 | 88 | 0.0 | 0.0 | 0.00 | 0.00 | 0.00 | 87 | 1013.7 |
| 20260507071017 | 21 | 88 | 0.0 | 0.0 | 0.00 | 0.00 | 0.00 | 87 | 1013.7 |
| 20260507070505 | 21 | 88 | 0.0 | 0.0 | 0.00 | 0.00 | 0.00 | 87 | 1013.7 |
| 20260507070012 | 21 | 88 | 0.0 | 1.6 | 0.00 | 0.00 | 0.00 | 87 | 1013.7 |
| 20260507065507 | 21 | 88 | 0.0 | 0.0 | 0.00 | 0.00 | 0.00 | 87 | 1013.7 |
| 20260507065004 | 21 | 88 | 0.0 | 1.6 | 0.00 | 0.00 | 0.00 | 87 | 1013.9 |
| 20260507064501 | 21 | 110 | 0.0 | 0.0 | 0.00 | 0.00 | 0.00 | 87 | 1013.9 |
| 20260507064102 | 21 | 110 | 0.0 | 0.0 | 0.00 | 0.00 | 0.00 | 86 | 1014.0 |
| 20260507063558 | 21 | 110 | 0.0 | 0.0 | 0.00 | 0.00 | 0.00 | 86 | 1014.1 |
| 20260507063501 | 21 | 110 | 0.0 | 0.0 | 0.00 | 0.00 | 0.00 | 86 | 1014.1 |
| 20260507063100 | 21 | 110 | 0.0 | 0.0 | 0.00 | 0.00 | 0.00 | 86 | 1014.1 |
| 20260507062555 | 21 | 110 | 0.0 | 0.0 | 0.00 | 0.00 | 0.00 | 86 | 1014.2 |
| 20260507062054 | 21 | 111 | 0.0 | 0.0 | 0.00 | 0.00 | 0.00 | 86 | 1014.3 |
| 20260507062001 | 21 | 111 | 0.0 | 1.6 | 0.00 | 0.00 | 0.00 | 86 | 1014.3 |
| 20260507061552 | 21 | 108 | 0.0 | 1.6 | 0.00 | 0.00 | 0.00 | 86 | 1014.5 |
| 20260507061050 | 21 | 108 | 0.0 | 0.0 | 0.00 | 0.00 | 0.00 | 85 | 1014.5 |
| 20260507060549 | 21 | 108 | 0.0 | 0.0 | 0.00 | 0.00 | 0.00 | 85 | 1014.8 |
| 20260507060056 | 21 | 108 | 0.0 | 0.0 | 0.00 | 0.00 | 0.00 | 85 | 1014.8 |
| 20260507055547 | 22 | 108 | 0.0 | 0.0 | 0.00 | 0.00 | 0.00 | 85 | 1014.9 |
| 20260507055046 | 22 | 108 | 0.0 | 1.6 | 0.00 | 0.00 | 0.00 | 85 | 1014.9 |
| 20260507054550 | 22 | 86 | 0.0 | 1.6 | 0.00 | 0.00 | 0.00 | 84 | 1014.8 |
| 20260507054518 | 22 | 86 | 0.0 | 0.0 | 0.00 | 0.00 | 0.00 | 84 | 1014.8 |
| 20260507054019 | 22 | 86 | 0.0 | 1.6 | 0.00 | 0.00 | 0.00 | 84 | 1014.9 |
| 20260507053519 | 22 | 86 | 0.0 | 1.6 | 0.00 | 0.00 | 0.00 | 84 | 1014.9 |
| 20260507053016 | 22 | 292 | 0.0 | 1.6 | 0.00 | 0.00 | 0.00 | 83 | 1015.0 |
| 20260507052515 | 22 | 147 | 0.0 | 0.0 | 0.00 | 0.00 | 0.00 | 83 | 1015.1 |
| 20260507052018 | 22 | 146 | 0.0 | 1.6 | 0.00 | 0.00 | 0.00 | 83 | 1015.1 |
| 20260507051515 | 22 | 130 | 0.0 | 1.6 | 0.00 | 0.00 | 0.00 | 83 | 1015.1 |
| 20260507051009 | 22 | 130 | 0.0 | 1.6 | 0.00 | 0.00 | 0.00 | 82 | 1015.1 |
| 20260507050508 | 22 | 338 | 0.0 | 1.6 | 0.00 | 0.00 | 0.00 | 82 | 1015.1 |
| 20260507050113 | 22 | 330 | 0.0 | 1.6 | 0.00 | 0.00 | 0.00 | 82 | 1015.1 |
| 20260507045508 | 22 | 108 | 0.0 | 1.6 | 0.00 | 0.00 | 0.00 | 82 | 1014.8 |
| 20260507045004 | 22 | 84 | 0.0 | 3.2 | 0.00 | 0.00 | 0.00 | 82 | 1014.8 |
| 20260507044515 | 22 | 85 | 0.0 | 3.2 | 0.00 | 0.00 | 0.00 | 82 | 1014.9 |
| 20260507044001 | 22 | 60 | 0.0 | 1.6 | 0.00 | 0.00 | 0.00 | 81 | 1015.0 |
| 20260507043604 | 22 | 140 | 0.0 | 1.6 | 0.00 | 0.00 | 0.00 | 81 | 1015.0 |
| 20260507043104 | 22 | 140 | 0.0 | 1.6 | 0.00 | 0.00 | 0.00 | 81 | 1015.1 |
| 20260507043002 | 22 | 208 | 0.0 | 1.6 | 0.00 | 0.00 | 0.00 | 81 | 1015.1 |
| 20260507042558 | 22 | 116 | 0.0 | 1.6 | 0.00 | 0.00 | 0.00 | 80 | 1015.1 |
| 20260507042105 | 22 | 116 | 0.0 | 1.6 | 0.00 | 0.00 | 0.00 | 80 | 1015.2 |
| 20260507041559 | 22 | 116 | 0.0 | 0.0 | 0.00 | 0.00 | 0.00 | 80 | 1015.3 |
| 20260507041057 | 22 | 116 | 0.0 | 0.0 | 0.00 | 0.00 | 0.00 | 79 | 1015.2 |
| 20260507041002 | 22 | 116 | 0.0 | 0.0 | 0.00 | 0.00 | 0.00 | 79 | 1015.3 |
| 20260507040553 | 22 | 116 | 0.0 | 0.0 | 0.00 | 0.00 | 0.00 | 79 | 1015.3 |
| 20260507040052 | 23 | 116 | 0.0 | 0.0 | 0.00 | 0.00 | 0.00 | 79 | 1015.3 |
| 20260507035553 | 23 | 116 | 0.0 | 0.0 | 0.00 | 0.00 | 0.00 | 79 | 1015.2 |
| 20260507035055 | 23 | 116 | 0.0 | 4.8 | 0.00 | 0.00 | 0.00 | 78 | 1015.3 |
| 20260507034555 | 23 | 116 | 0.0 | 4.8 | 0.00 | 0.00 | 0.00 | 78 | 1015.2 |
| 20260507034053 | 23 | 322 | 0.0 | 0.0 | 0.00 | 0.00 | 0.00 | 78 | 1015.1 |
| 20260507033550 | 23 | 322 | 0.0 | 0.0 | 0.00 | 0.00 | 0.00 | 77 | 1015.1 |
| 20260507033051 | 23 | 322 | 0.0 | 0.0 | 0.00 | 0.00 | 0.00 | 77 | 1015.0 |
| 20260507032550 | 23 | 322 | 0.0 | 1.6 | 0.00 | 0.00 | 0.00 | 77 | 1015.0 |
| 20260507032046 | 23 | 166 | 0.0 | 4.8 | 0.00 | 0.00 | 0.00 | 77 | 1015.0 |
| 20260507031044 | 23 | 120 | 0.0 | 1.6 | 0.00 | 0.00 | 0.00 | 77 | 1015.1 |
| 20260507030548 | 23 | 168 | 0.0 | 0.0 | 0.00 | 0.00 | 0.00 | 76 | 1015.0 |
| 20260507030042 | 23 | 169 | 0.0 | 1.6 | 0.00 | 0.00 | 0.00 | 76 | 1014.9 |
| 20260507025554 | 23 | 169 | 0.0 | 1.6 | 0.00 | 0.00 | 0.00 | 76 | 1014.9 |
| 20260507025044 | 23 | 274 | 0.0 | 6.4 | 0.00 | 0.00 | 0.00 | 75 | 1015.0 |
| 20260507024547 | 23 | 85 | 0.0 | 6.4 | 0.00 | 0.00 | 0.00 | 75 | 1015.1 |
| 20260507024038 | 23 | 215 | 0.0 | 3.2 | 0.00 | 0.00 | 0.00 | 75 | 1015.1 |
| 20260507023540 | 23 | 107 | 0.0 | 3.2 | 0.00 | 0.00 | 0.00 | 75 | 1015.0 |
| 20260507023036 | 23 | 136 | 0.0 | 4.8 | 0.00 | 0.00 | 0.00 | 75 | 1015.1 |
| 20260507022536 | 24 | 125 | 0.0 | 4.8 | 0.00 | 0.00 | 0.00 | 75 | 1015.0 |
| 20260507022140 | 24 | 98 | 0.0 | 3.2 | 0.00 | 0.00 | 0.00 | 74 | 1015.0 |
| 20260507021533 | 24 | 154 | 0.0 | 3.2 | 0.00 | 0.00 | 0.00 | 74 | 1015.2 |
| 20260507021032 | 24 | 139 | 0.0 | 4.8 | 0.00 | 0.00 | 0.00 | 73 | 1015.0 |
| 20260507020531 | 24 | 56 | 0.0 | 4.8 | 0.00 | 0.00 | 0.00 | 74 | 1015.0 |
| 20260507020042 | 24 | 249 | 0.0 | 4.8 | 0.00 | 0.00 | 0.00 | 74 | 1015.0 |
| 20260507015534 | 24 | 243 | 0.0 | 4.8 | 0.00 | 0.00 | 0.00 | 73 | 1014.6 |
| 20260507015028 | 24 | 271 | 0.0 | 1.6 | 0.00 | 0.00 | 0.00 | 74 | 1014.6 |
| 20260507014529 | 25 | 241 | 0.0 | 1.6 | 0.00 | 0.00 | 0.00 | 73 | 1014.8 |
| 20260507014030 | 25 | 209 | 0.0 | 1.6 | 0.00 | 0.00 | 0.00 | 73 | 1014.8 |
| 20260507013530 | 25 | 15 | 0.0 | 6.4 | 0.00 | 0.00 | 0.00 | 74 | 1014.7 |
| 20260507013025 | 25 | 112 | 0.0 | 6.4 | 0.00 | 0.00 | 0.00 | 73 | 1014.7 |
| 20260507012528 | 25 | 79 | 0.0 | 3.2 | 0.00 | 0.00 | 0.00 | 73 | 1014.8 |
| 20260507012024 | 25 | 281 | 0.0 | 6.4 | 0.00 | 0.00 | 0.00 | 73 | 1015.0 |
| 20260507011524 | 25 | 281 | 0.0 | 6.4 | 0.00 | 0.00 | 0.00 | 73 | 1015.1 |
| 20260507011025 | 25 | 131 | 0.0 | 4.8 | 0.00 | 0.00 | 0.00 | 74 | 1015.0 |
| 20260507010523 | 25 | 92 | 0.0 | 4.8 | 0.00 | 0.00 | 0.00 | 75 | 1014.9 |
| 20260507010028 | 25 | 195 | 0.0 | 4.8 | 0.00 | 0.00 | 0.00 | 74 | 1014.9 |
| 20260507005522 | 25 | 90 | 0.0 | 4.8 | 0.00 | 0.00 | 0.00 | 74 | 1015.0 |
| 20260507005020 | 25 | 49 | 0.0 | 1.6 | 0.00 | 0.00 | 0.00 | 75 | 1014.9 |
| 20260507004521 | 25 | 107 | 0.0 | 1.6 | 0.00 | 0.00 | 0.00 | 75 | 1014.7 |
| 20260507004023 | 25 | 341 | 0.0 | 1.6 | 0.00 | 0.00 | 0.00 | 74 | 1014.8 |
| 20260507003518 | 25 | 96 | 0.0 | 1.6 | 0.00 | 0.00 | 0.00 | 74 | 1014.6 |
| 20260507003026 | 26 | 95 | 0.0 | 1.6 | 0.00 | 0.00 | 0.00 | 74 | 1014.5 |
| 20260507002617 | 26 | 95 | 0.0 | 1.6 | 0.00 | 0.00 | 0.00 | 73 | 1014.5 |
| 20260507002018 | 26 | 280 | 0.0 | 4.8 | 0.00 | 0.00 | 0.00 | 72 | 1014.4 |
| 20260507001524 | 26 | 64 | 0.0 | 4.8 | 0.00 | 0.00 | 0.00 | 72 | 1014.1 |
| 20260507001015 | 26 | 58 | 0.0 | 6.4 | 0.00 | 0.00 | 0.00 | 71 | 1014.1 |
| 20260507000515 | 26 | 123 | 0.0 | 6.4 | 0.00 | 0.00 | 0.00 | 71 | 1014.0 |
| 20260507000014 | 26 | 225 | 0.0 | 3.2 | 0.00 | 0.00 | 0.00 | 71 | 1014.0 |
| 20260506235520 | 27 | 96 | 0.0 | 9.7 | 0.00 | 0.00 | 0.00 | 71 | 1014.0 |
| 20260506234512 | 27 | 148 | 0.0 | 6.4 | 0.00 | 0.00 | 0.00 | 71 | 1013.9 |
| 20260506234008 | 27 | 148 | 0.0 | 8.0 | 0.00 | 0.00 | 0.00 | 70 | 1013.9 |
| 20260506233512 | 27 | 249 | 0.0 | 8.0 | 0.00 | 0.00 | 0.00 | 70 | 1013.7 |
| 20260506233009 | 28 | 343 | 0.0 | 6.4 | 0.00 | 0.00 | 0.00 | 70 | 1013.7 |
| 20260506232509 | 28 | 110 | 1.6 | 6.4 | 0.00 | 0.00 | 0.00 | 69 | 1013.9 |
| 20260506232006 | 28 | 147 | 0.0 | 6.4 | 0.00 | 0.00 | 0.00 | 69 | 1013.8 |
| 20260506231511 | 28 | 162 | 1.6 | 9.7 | 0.00 | 0.00 | 0.00 | 68 | 1013.8 |
| 20260506231006 | 29 | 147 | 3.2 | 9.7 | 0.00 | 0.00 | 0.00 | 66 | 1013.8 |
| 20260506230505 | 30 | 7 | 3.2 | 8.0 | 0.00 | 0.00 | 0.00 | 66 | 1013.9 |
| 20260506230003 | 30 | 347 | 1.6 | 4.8 | 0.00 | 0.00 | 0.00 | 65 | 1013.8 |
| 20260506225502 | 30 | 114 | 0.0 | 4.8 | 0.00 | 0.00 | 0.00 | 66 | 1014.0 |
| 20260506225010 | 30 | 98 | 0.0 | 4.8 | 0.00 | 0.00 | 0.00 | 67 | 1013.9 |
| 20260506224502 | 30 | 80 | 0.0 | 12.9 | 0.00 | 0.00 | 0.00 | 67 | 1013.9 |
| 20260506224006 | 30 | 173 | 0.0 | 8.0 | 0.00 | 0.00 | 0.00 | 66 | 1013.9 |
| 20260506223501 | 30 | 219 | 0.0 | 6.4 | 0.00 | 0.00 | 0.00 | 66 | 1013.8 |
| 20260506223001 | 31 | 173 | 0.0 | 9.7 | 0.00 | 0.00 | 0.00 | 66 | 1013.7 |
| 20260506222559 | 31 | 103 | 1.6 | 9.7 | 0.00 | 0.00 | 0.00 | 65 | 1013.7 |
| 20260506222102 | 31 | 89 | 1.6 | 9.7 | 0.00 | 0.00 | 0.00 | 64 | 1013.7 |
| 20260506221559 | 31 | 204 | 3.2 | 9.7 | 0.00 | 0.00 | 0.00 | 63 | 1013.7 |
| 20260506221104 | 32 | 221 | 1.6 | 9.7 | 0.00 | 0.00 | 0.00 | 62 | 1013.8 |
| 20260506220557 | 32 | 118 | 1.6 | 9.7 | 0.00 | 0.00 | 0.00 | 59 | 1013.7 |
| 20260506220059 | 32 | 327 | 0.0 | 8.0 | 0.00 | 0.00 | 0.00 | 51 | 1013.7 |
| 20260506215558 | 33 | 321 | 0.0 | 6.4 | 0.00 | 0.00 | 0.00 | 50 | 1013.6 |
| 20260506215059 | 33 | 227 | 0.0 | 3.2 | 0.00 | 0.00 | 0.00 | 51 | 1013.6 |
| 20260506214609 | 33 | 299 | 0.0 | 6.4 | 0.00 | 0.00 | 0.00 | 51 | 1013.6 |
| 20260506214049 | 33 | 141 | 0.0 | 6.4 | 0.00 | 0.00 | 0.00 | 51 | 1013.6 |
| 20260506213548 | 33 | 201 | 0.0 | 4.8 | 0.00 | 0.00 | 0.00 | 50 | 1013.8 |
| 20260506213047 | 33 | 92 | 1.6 | 4.8 | 0.00 | 0.00 | 0.00 | 49 | 1013.9 |
| 20260506212544 | 33 | 240 | 0.0 | 6.4 | 0.00 | 0.00 | 0.00 | 51 | 1013.9 |
| 20260506212043 | 33 | 233 | 0.0 | 6.4 | 0.00 | 0.00 | 0.00 | 52 | 1013.7 |
| 20260506211039 | 33 | 293 | 0.0 | 3.2 | 0.00 | 0.00 | 0.00 | 47 | 1014.0 |
| 20260506210539 | 33 | 96 | 0.0 | 8.0 | 0.00 | 0.00 | 0.00 | 49 | 1014.0 |
| 20260506210041 | 33 | 224 | 3.2 | 8.0 | 0.00 | 0.00 | 0.00 | 51 | 1014.0 |
| 20260506205538 | 33 | 235 | 0.0 | 4.8 | 0.00 | 0.00 | 0.00 | 49 | 1014.1 |
| 20260506205037 | 33 | 339 | 1.6 | 6.4 | 0.00 | 0.00 | 0.00 | 51 | 1014.1 |
| 20260506204536 | 33 | 205 | 1.6 | 6.4 | 0.00 | 0.00 | 0.00 | 51 | 1014.1 |
| 20260506204042 | 33 | 335 | 0.0 | 6.4 | 0.00 | 0.00 | 0.00 | 50 | 1014.1 |
| 20260506203535 | 34 | 248 | 0.0 | 4.8 | 0.00 | 0.00 | 0.00 | 50 | 1014.1 |
| 20260506203035 | 35 | 272 | 0.0 | 3.2 | 0.00 | 0.00 | 0.00 | 49 | 1014.1 |
| 20260506202531 | 34 | 266 | 0.0 | 4.8 | 0.00 | 0.00 | 0.00 | 51 | 1014.1 |
| 20260506202029 | 34 | 308 | 0.0 | 4.8 | 0.00 | 0.00 | 0.00 | 51 | 1014.3 |
| 20260506201531 | 33 | 231 | 1.6 | 6.4 | 0.00 | 0.00 | 0.00 | 51 | 1014.3 |
| 20260506201030 | 33 | 248 | 3.2 | 6.4 | 0.00 | 0.00 | 0.00 | 50 | 1014.3 |
| 20260506200527 | 33 | 148 | 1.6 | 6.4 | 0.00 | 0.00 | 0.00 | 51 | 1014.5 |
| 20260506200027 | 34 | 288 | 1.6 | 4.8 | 0.00 | 0.00 | 0.00 | 50 | 1014.6 |
| 20260506195525 | 34 | 311 | 0.0 | 8.0 | 0.00 | 0.00 | 0.00 | 52 | 1014.6 |
| 20260506195027 | 34 | 214 | 3.2 | 8.0 | 0.00 | 0.00 | 0.00 | 50 | 1014.7 |
| 20260506194527 | 35 | 255 | 1.6 | 4.8 | 0.00 | 0.00 | 0.00 | 51 | 1014.8 |
| 20260506194044 | 34 | 155 | 0.0 | 4.8 | 0.00 | 0.00 | 0.00 | 50 | 1014.8 |
| 20260506193523 | 34 | 146 | 0.0 | 6.4 | 0.00 | 0.00 | 0.00 | 50 | 1014.9 |
| 20260506193019 | 33 | 156 | 1.6 | 9.7 | 0.00 | 0.00 | 0.00 | 51 | 1015.0 |
| 20260506192518 | 33 | 247 | 1.6 | 6.4 | 0.00 | 0.00 | 0.00 | 52 | 1015.0 |
| 20260506192019 | 33 | 238 | 1.6 | 6.4 | 0.00 | 0.00 | 0.00 | 52 | 1015.1 |
| 20260506191515 | 33 | 229 | 1.6 | 6.4 | 0.00 | 0.00 | 0.00 | 53 | 1015.1 |
| 20260506191015 | 33 | 321 | 1.6 | 6.4 | 0.00 | 0.00 | 0.00 | 52 | 1015.2 |
| 20260506190512 | 33 | 319 | 0.0 | 8.0 | 0.00 | 0.00 | 0.00 | 52 | 1015.3 |
| 20260506190111 | 33 | 241 | 3.2 | 8.0 | 0.00 | 0.00 | 0.00 | 55 | 1015.3 |
| 20260506185508 | 33 | 124 | 1.6 | 12.9 | 0.00 | 0.00 | 0.00 | 52 | 1015.3 |
| 20260506185011 | 33 | 265 | 4.8 | 12.9 | 0.00 | 0.00 | 0.00 | 54 | 1015.3 |
| 20260506184507 | 32 | 331 | 1.6 | 6.4 | 0.00 | 0.00 | 0.00 | 55 | 1015.4 |
| 20260506184006 | 32 | 181 | 1.6 | 9.7 | 0.00 | 0.00 | 0.00 | 56 | 1015.5 |
| 20260506183503 | 32 | 332 | 1.6 | 6.4 | 0.00 | 0.00 | 0.00 | 54 | 1015.5 |
| 20260506183001 | 32 | 345 | 0.0 | 4.8 | 0.00 | 0.00 | 0.00 | 55 | 1015.5 |
| 20260506182600 | 32 | 253 | 1.6 | 9.7 | 0.00 | 0.00 | 0.00 | 55 | 1015.7 |
| 20260506182502 | 32 | 233 | 1.6 | 9.7 | 0.00 | 0.00 | 0.00 | 56 | 1015.7 |
| 20260506182100 | 32 | 224 | 3.2 | 9.7 | 0.00 | 0.00 | 0.00 | 57 | 1015.9 |
| 20260506181602 | 32 | 298 | 3.2 | 9.7 | 0.00 | 0.00 | 0.00 | 56 | 1015.9 |
| 20260506181501 | 32 | 312 | 3.2 | 11.3 | 0.00 | 0.00 | 0.00 | 56 | 1015.9 |
| 20260506181103 | 32 | 252 | 4.8 | 11.3 | 0.00 | 0.00 | 0.00 | 57 | 1015.8 |
| 20260506181003 | 32 | 241 | 3.2 | 11.3 | 0.00 | 0.00 | 0.00 | 59 | 1015.7 |
| 20260506180601 | 32 | 239 | 1.6 | 6.4 | 0.00 | 0.00 | 0.00 | 56 | 1016.0 |
| 20260506180101 | 32 | 234 | 1.6 | 6.4 | 0.00 | 0.00 | 0.00 | 58 | 1016.0 |
| 20260506175058 | 32 | 319 | 1.6 | 9.7 | 0.00 | 0.00 | 0.00 | 59 | 1016.0 |
| 20260506174558 | 31 | 311 | 1.6 | 9.7 | 0.00 | 0.00 | 0.00 | 61 | 1016.0 |
| 20260506174059 | 31 | 298 | 3.2 | 9.7 | 0.00 | 0.00 | 0.00 | 59 | 1016.2 |
| 20260506173551 | 32 | 74 | 0.0 | 4.8 | 0.00 | 0.00 | 0.00 | 57 | 1016.3 |
| 20260506173051 | 32 | 283 | 0.0 | 4.8 | 0.00 | 0.00 | 0.00 | 58 | 1016.5 |
| 20260506172045 | 31 | 73 | 0.0 | 6.4 | 0.00 | 0.00 | 0.00 | 60 | 1016.5 |
| 20260506171553 | 31 | 265 | 0.0 | 6.4 | 0.00 | 0.00 | 0.00 | 61 | 1016.6 |
| 20260506171040 | 30 | 255 | 0.0 | 6.4 | 0.00 | 0.00 | 0.00 | 63 | 1016.6 |
| 20260506170540 | 30 | 86 | 1.6 | 12.9 | 0.00 | 0.00 | 0.00 | 61 | 1016.6 |
| 20260506170040 | 30 | 148 | 1.6 | 8.0 | 0.00 | 0.00 | 0.00 | 62 | 1016.6 |
| 20260506165544 | 30 | 291 | 1.6 | 12.9 | 0.00 | 0.00 | 0.00 | 63 | 1016.9 |
| 20260506165036 | 31 | 252 | 3.2 | 12.9 | 0.00 | 0.00 | 0.00 | 62 | 1016.9 |
| 20260506164536 | 30 | 256 | 1.6 | 9.7 | 0.00 | 0.00 | 0.00 | 63 | 1017.0 |
| 20260506164034 | 31 | 297 | 1.6 | 6.4 | 0.00 | 0.00 | 0.00 | 63 | 1016.9 |
| 20260506163533 | 30 | 227 | 1.6 | 8.0 | 0.00 | 0.00 | 0.00 | 64 | 1017.0 |
| 20260506163041 | 30 | 262 | 1.6 | 9.7 | 0.00 | 0.00 | 0.00 | 63 | 1017.2 |
| 20260506162539 | 30 | 226 | 1.6 | 9.7 | 0.00 | 0.00 | 0.00 | 65 | 1017.2 |
| 20260506162033 | 30 | 108 | 3.2 | 12.9 | 0.00 | 0.00 | 0.00 | 64 | 1017.2 |
| 20260506161529 | 30 | 93 | 1.6 | 12.9 | 0.00 | 0.00 | 0.00 | 62 | 1017.1 |
| 20260506161031 | 30 | 207 | 1.6 | 8.0 | 0.00 | 0.00 | 0.00 | 67 | 1017.1 |
| 20260506160526 | 30 | 245 | 0.0 | 8.0 | 0.00 | 0.00 | 0.00 | 65 | 1017.2 |
| 20260506160026 | 30 | 96 | 1.6 | 12.9 | 0.00 | 0.00 | 0.00 | 67 | 1017.2 |
| 20260506155524 | 29 | 289 | 1.6 | 12.9 | 0.00 | 0.00 | 0.00 | 67 | 1017.3 |
| 20260506155030 | 28 | 217 | 3.2 | 11.3 | 0.00 | 0.00 | 0.00 | 68 | 1017.3 |
| 20260506154524 | 29 | 255 | 3.2 | 11.3 | 0.00 | 0.00 | 0.00 | 67 | 1017.3 |
| 20260506154018 | 28 | 55 | 0.0 | 9.7 | 0.00 | 0.00 | 0.00 | 70 | 1017.3 |
| 20260506153521 | 28 | 342 | 0.0 | 9.7 | 0.00 | 0.00 | 0.00 | 69 | 1017.2 |
| 20260506153120 | 28 | 186 | 1.6 | 11.3 | 0.00 | 0.00 | 0.00 | 68 | 1017.2 |
| 20260506152514 | 28 | 239 | 0.0 | 11.3 | 0.00 | 0.00 | 0.00 | 71 | 1017.2 |
| 20260506152012 | 28 | 202 | 1.6 | 6.4 | 0.00 | 0.00 | 0.00 | 69 | 1017.2 |
| 20260506151014 | 27 | 78 | 3.2 | 9.7 | 0.00 | 0.00 | 0.00 | 71 | 1017.2 |
| 20260506150507 | 27 | 267 | 1.6 | 11.3 | 0.00 | 0.00 | 0.00 | 74 | 1017.1 |
| 20260506150006 | 27 | 300 | 3.2 | 9.7 | 0.00 | 0.00 | 0.00 | 72 | 1017.1 |
| 20260506145550 | 27 | 248 | 3.2 | 9.7 | 0.00 | 0.00 | 0.00 | 72 | 1017.1 |
| 20260506145158 | 27 | 248 | 3.2 | 11.3 | 0.00 | 0.00 | 0.00 | 74 | 1017.0 |
| 20260506144559 | 26 | 326 | 3.2 | 9.7 | 0.00 | 0.00 | 0.00 | 73 | 1016.9 |
| 20260506144045 | 26 | 237 | 1.6 | 9.7 | 0.00 | 0.00 | 0.00 | 76 | 1016.9 |
| 20260506143543 | 26 | 150 | 1.6 | 9.7 | 0.00 | 0.00 | 0.00 | 77 | 1017.0 |
| 20260506143044 | 26 | 316 | 4.8 | 9.7 | 0.00 | 0.00 | 0.00 | 74 | 1016.9 |
| 20260506142540 | 26 | 265 | 3.2 | 9.7 | 0.00 | 0.00 | 0.00 | 75 | 1016.9 |
| 20260506142038 | 26 | 243 | 3.2 | 14.5 | 0.00 | 0.00 | 0.00 | 79 | 1016.9 |
| 20260506141538 | 26 | 203 | 4.8 | 14.5 | 0.00 | 0.00 | 0.00 | 77 | 1016.9 |
| 20260506141035 | 25 | 311 | 3.2 | 9.7 | 0.00 | 0.00 | 0.00 | 78 | 1017.0 |
| 20260506140534 | 25 | 238 | 1.6 | 9.7 | 0.00 | 0.00 | 0.00 | 79 | 1016.9 |
| 20260506140032 | 25 | 261 | 1.6 | 9.7 | 0.00 | 0.00 | 0.00 | 80 | 1016.9 |
| 20260506135530 | 25 | 271 | 1.6 | 8.0 | 0.00 | 0.00 | 0.00 | 82 | 1016.9 |
| 20260506135029 | 24 | 60 | 1.6 | 9.7 | 0.00 | 0.00 | 0.00 | 81 | 1017.0 |
| 20260506134527 | 24 | 323 | 3.2 | 11.3 | 0.00 | 0.00 | 0.00 | 80 | 1017.0 |
| 20260506134026 | 23 | 339 | 1.6 | 11.3 | 0.00 | 0.00 | 0.00 | 81 | 1017.0 |
| 20260506133524 | 23 | 275 | 1.6 | 12.9 | 0.00 | 0.00 | 0.00 | 83 | 1017.0 |
| 20260506133039 | 23 | 274 | 1.6 | 11.3 | 0.00 | 0.00 | 0.00 | 82 | 1016.9 |
| 20260506132517 | 23 | 258 | 3.2 | 12.9 | 0.00 | 0.00 | 0.00 | 83 | 1017.1 |
| 20260506132017 | 22 | 312 | 3.2 | 11.3 | 0.00 | 0.00 | 0.00 | 84 | 1017.1 |
| 20260506131517 | 22 | 245 | 1.6 | 6.4 | 0.00 | 0.00 | 0.00 | 85 | 1017.0 |
| 20260506131012 | 22 | 250 | 1.6 | 9.7 | 0.00 | 0.00 | 0.00 | 86 | 1016.8 |
| 20260506130510 | 21 | 291 | 0.0 | 4.8 | 0.00 | 0.00 | 0.00 | 88 | 1016.8 |
| 20260506130012 | 21 | 298 | 0.0 | 4.8 | 0.00 | 0.00 | 0.00 | 88 | 1016.8 |
| 20260506125507 | 20 | 250 | 0.0 | 1.6 | 0.00 | 0.00 | 0.00 | 90 | 1016.8 |
| 20260506125018 | 20 | 49 | 0.0 | 1.6 | 0.00 | 0.00 | 0.00 | 90 | 1016.7 |
| 20260506124559 | 20 | 115 | 0.0 | 6.4 | 0.00 | 0.00 | 0.00 | 91 | 1016.9 |
| 20260506124057 | 19 | 199 | 0.0 | 6.4 | 0.00 | 0.00 | 0.00 | 92 | 1016.7 |
| 20260506123557 | 18 | 248 | 0.0 | 1.6 | 0.00 | 0.00 | 0.00 | 92 | 1016.7 |
| 20260506123050 | 18 | 244 | 0.0 | 1.6 | 0.00 | 0.00 | 0.00 | 93 | 1016.6 |
| 20260506122546 | 17 | 161 | 0.0 | 0.0 | 0.00 | 0.00 | 0.00 | 93 | 1016.7 |
| 20260506121540 | 17 | 160 | 0.0 | 0.0 | 0.00 | 0.00 | 0.00 | 93 | 1016.4 |
| 20260506121141 | 17 | 162 | 0.0 | 0.0 | 0.00 | 0.00 | 0.00 | 93 | 1016.4 |
| 20260506120544 | 16 | 162 | 0.0 | 0.0 | 0.00 | 0.00 | 0.00 | 93 | 1016.3 |
| 20260506120047 | 16 | 162 | 0.0 | 0.0 | 0.00 | 0.00 | 0.00 | 93 | 1016.5 |
| 20260506115538 | 16 | 162 | 0.0 | 0.0 | 0.00 | 0.00 | 0.00 | 93 | 1016.2 |
| 20260506115033 | 16 | 162 | 0.0 | 0.0 | 0.00 | 0.00 | 0.00 | 93 | 1016.3 |
| 20260506114532 | 16 | 162 | 0.0 | 0.0 | 0.00 | 0.00 | 0.00 | 93 | 1016.2 |
| 20260506114036 | 16 | 162 | 0.0 | 0.0 | 0.00 | 0.00 | 0.00 | 93 | 1016.3 |
| 20260506113531 | 15 | 162 | 0.0 | 0.0 | 0.00 | 0.00 | 0.00 | 93 | 1016.2 |
| 20260506113031 | 15 | 162 | 0.0 | 0.0 | 0.00 | 0.00 | 0.00 | 93 | 1016.1 |
| 20260506112530 | 15 | 162 | 0.0 | 0.0 | 0.00 | 0.00 | 0.00 | 93 | 1016.1 |
| 20260506112029 | 15 | 155 | 0.0 | 0.0 | 0.00 | 0.00 | 0.00 | 93 | 1016.2 |
| 20260506111529 | 15 | 155 | 0.0 | 0.0 | 0.00 | 0.00 | 0.00 | 93 | 1016.2 |
| 20260506111028 | 15 | 155 | 0.0 | 0.0 | 0.00 | 0.00 | 0.00 | 93 | 1016.1 |
| 20260506110525 | 15 | 155 | 0.0 | 0.0 | 0.00 | 0.00 | 0.00 | 93 | 1016.1 |
| 20260506110030 | 15 | 155 | 0.0 | 0.0 | 0.00 | 0.00 | 0.00 | 93 | 1016.0 |
| 20260506105523 | 15 | 155 | 0.0 | 0.0 | 0.00 | 0.00 | 0.00 | 92 | 1015.9 |
| 20260506105021 | 15 | 155 | 0.0 | 0.0 | 0.00 | 0.00 | 0.00 | 92 | 1015.7 |
| 20260506104521 | 15 | 155 | 0.0 | 0.0 | 0.00 | 0.00 | 0.00 | 92 | 1015.7 |
| 20260506104023 | 15 | 155 | 0.0 | 0.0 | 0.00 | 0.00 | 0.00 | 92 | 1015.5 |
| 20260506103510 | 15 | 155 | 0.0 | 0.0 | 0.00 | 0.00 | 0.00 | 92 | 1015.5 |
| 20260506103010 | 15 | 155 | 0.0 | 0.0 | 0.00 | 0.00 | 0.00 | 92 | 1015.3 |
| 20260506102510 | 15 | 155 | 0.0 | 0.0 | 0.00 | 0.00 | 0.00 | 92 | 1015.3 |
| 20260506102014 | 15 | 155 | 0.0 | 0.0 | 0.00 | 0.00 | 0.00 | 92 | 1015.4 |
| 20260506101509 | 15 | 155 | 0.0 | 0.0 | 0.00 | 0.00 | 0.00 | 92 | 1015.5 |
| 20260506101010 | 15 | 155 | 0.0 | 0.0 | 0.00 | 0.00 | 0.00 | 92 | 1015.6 |
| 20260506100507 | 15 | 155 | 0.0 | 0.0 | 0.00 | 0.00 | 0.00 | 92 | 1015.5 |
| 20260506100010 | 15 | 155 | 0.0 | 0.0 | 0.00 | 0.00 | 0.00 | 92 | 1015.7 |
| 20260506095506 | 15 | 155 | 0.0 | 0.0 | 0.00 | 0.00 | 0.00 | 92 | 1015.5 |
| 20260506095006 | 15 | 155 | 0.0 | 0.0 | 0.00 | 0.00 | 0.00 | 92 | 1015.7 |
| 20260506094506 | 15 | 155 | 0.0 | 0.0 | 0.00 | 0.00 | 0.00 | 92 | 1015.7 |
| 20260506094002 | 15 | 155 | 0.0 | 0.0 | 0.00 | 0.00 | 0.00 | 92 | 1015.7 |
| 20260506093505 | 15 | 155 | 0.0 | 0.0 | 0.00 | 0.00 | 0.00 | 92 | 1015.5 |
| 20260506093000 | 15 | 155 | 0.0 | 0.0 | 0.00 | 0.00 | 0.00 | 92 | 1015.3 |
| 20260506092600 | 15 | 155 | 0.0 | 0.0 | 0.00 | 0.00 | 0.00 | 92 | 1015.3 |
| 20260506092504 | 15 | 155 | 0.0 | 0.0 | 0.00 | 0.00 | 0.00 | 92 | 1015.2 |
| 20260506092059 | 15 | 155 | 0.0 | 0.0 | 0.00 | 0.00 | 0.00 | 92 | 1015.3 |
| 20260506092001 | 15 | 155 | 0.0 | 0.0 | 0.00 | 0.00 | 0.00 | 92 | 1015.3 |
| 20260506091606 | 15 | 155 | 0.0 | 0.0 | 0.00 | 0.00 | 0.00 | 91 | 1015.1 |
| 20260506091059 | 15 | 155 | 0.0 | 0.0 | 0.00 | 0.00 | 0.00 | 92 | 1015.2 |
| 20260506090513 | 15 | 155 | 0.0 | 0.0 | 0.00 | 0.00 | 0.00 | 92 | 1015.3 |
| 20260506090013 | 15 | 155 | 0.0 | 0.0 | 0.00 | 0.00 | 0.00 | 91 | 1015.3 |